Weather reports worldwide

Advertisment
Genthin, Germany (10365): temperature & dewpoint: 14.06.2019 06:00:00 - 20.06.2019 06:00:00 (CEST)Genthin, Germany (10365): temperature 5cm & temperature -5cm: 14.06.2019 06:00:00 - 20.06.2019 06:00:00 (CEST)Genthin, Germany (10365): temperature -20cm & temperature -100cm: 14.06.2019 06:00:00 - 20.06.2019 06:00:00 (CEST)Genthin, Germany (10365): wind speed & gusts: 14.06.2019 06:00:00 - 20.06.2019 06:00:00 (CEST)Genthin, Germany (10365): wind direction: 14.06.2019 06:00:00 - 20.06.2019 06:00:00 (CEST)Genthin, Germany (10365): reduced air pressure: 14.06.2019 06:00:00 - 20.06.2019 06:00:00 (CEST)Genthin, Germany (10365): visibility: 14.06.2019 06:00:00 - 20.06.2019 06:00:00 (CEST)Genthin, Germany (10365): sunshine duration: 14.06.2019 06:00:00 - 20.06.2019 06:00:00 (CEST)Genthin, Germany (10365): precipitation: 14.06.2019 06:00:00 - 20.06.2019 06:00:00 (CEST)
Date & Time tt [°C] td [°C] tt 5cm [°C] tt -5cm [°C] tt -20cm [°C] tt -100cm [°C] ff [km/h] ff [kn] fx [km/h] fx [kn] dd ppp [hPa] vv [km] sd [min] rr [mm]
20.06.2019 06:00:00 16,6 15,2 16,4 21,3 24,5 17,9 5 3 12 6 S 1008,3 35 3 0,0
20.06.2019 05:00:00 15,5 14,9 14,7 22,0 25,0 17,9 7 4 14 8 ESE 1008,3 16 0 0,0
20.06.2019 04:00:00 17,9 15,4 16,6 22,7 25,5 17,9 6 4 22 12 W 1008,5 50 0 0,0
20.06.2019 03:00:00 18,6 15,3 17,6 23,8 26,0 17,9 12 6 45 24 NNW 1008,8 50 0 0,9
20.06.2019 02:00:00 22,1 12,9 21,7 24,9 26,5 17,9 29 15 50 27 W 1009,3 52 0 0,0
20.06.2019 01:00:00 20,8 13,8 20,0 25,6 27,0 17,9 9 5 28 15 SE 1007,7 62 0 0,0
20.06.2019 00:00:00 21,8 13,2 20,0 27,0 27,5 17,9 14 8 41 22 W 1008,6 59 0 0,1
19.06.2019 23:00:00 25,1 9,8 23,4 27,8 27,9 17,9 6 4 29 16 WNW 1007,2 69 0 0,0
19.06.2019 22:00:00 26,1 10,3 24,4 29,1 28,4 17,8 10 5 22 12 W 1007,4 12 0 0,0
19.06.2019 21:00:00 27,9 11,2 26,9 30,8 28,7 17,8 16 8 26 14 WNW 1006,8 62 2 0,0
19.06.2019 20:00:00 30,9 9,9 30,2 32,8 28,7 17,8 9 5 22 12 W 1006,5 59 54 0,0
19.06.2019 19:00:00 32,6 8,7 34,2 34,4 28,5 17,8 10 6 30 16 W 1006,0 47 60 0,0
19.06.2019 18:00:00 33,0 6,9 35,9 34,9 28,2 17,8 11 6 26 14 SSW 1006,1 53 50 0,0
19.06.2019 17:00:00 32,6 8,4 34,2 35,7 27,6 17,8 11 6 35 19 SW 1006,7 56 51 0,0
19.06.2019 16:00:00 33,3 8,1 38,2 35,7 26,8 17,8 13 7 29 16 SSW 1007,1 67 54 0,0
19.06.2019 15:00:00 33,2 9,5 38,2 35,5 25,9 17,8 13 7 32 18 SSW 1007,7 48 60 0,0
19.06.2019 14:00:00 31,0 11,0 34,0 34,2 25,0 17,8 16 9 34 18 S 1008,3 54 57 0,0
19.06.2019 13:00:00 31,2 12,1 36,4 31,8 24,2 17,8 8 4 23 13 S 1008,6 62 58 0,0
19.06.2019 12:00:00 28,4 13,9 31,0 29,3 23,6 17,8 11 6 24 13 SSE 1009,1 54 36 0,0
19.06.2019 11:00:00 28,7 14,9 32,9 28,2 23,0 17,7 8 4 20 11 ESE 1009,4 50 58 0,0
19.06.2019 10:00:00 27,2 15,0 31,2 25,8 22,5 17,7 8 4 17 9 SE 1009,7 64 59 0,0
19.06.2019 09:00:00 25,1 14,4 28,3 23,3 22,3 17,7 11 6 20 11 SSE 1010,3 64 58 0,0
19.06.2019 08:00:00 22,4 14,4 22,7 21,7 22,4 17,7 9 5 14 8 ESE 1010,7 48 49 0,0
19.06.2019 07:00:00 19,7 13,7 21,0 20,6 22,7 17,7 4 2 8 4 E 1011,0 40 56 0,0
19.06.2019 06:00:00 16,3 12,8 14,7 20,1 23,1 17,7 4 2 7 4 NE 1011,4 38 9 0,0
19.06.2019 05:00:00 14,8 12,1 12,0 20,6 23,6 17,6 5 3 9 5 E 1011,6 43 0 0,0
19.06.2019 04:00:00 16,4 12,3 12,6 21,2 24,0 17,6 8 4 12 6 SE 1011,8 47 0 0,0
19.06.2019 03:00:00 17,2 11,7 12,9 21,9 24,5 17,6 8 5 11 6 ESE 1012,0 53 0 0,0
19.06.2019 02:00:00 16,3 11,6 13,1 22,7 25,1 17,6 4 2 11 6 ESE 1012,6 55 0 0,0
19.06.2019 01:00:00 17,1 11,6 14,3 23,7 25,6 17,6 4 2 6 3 ESE 1012,7 51 0 0,0
19.06.2019 00:00:00 17,7 11,9 15,6 24,7 26,1 17,6 4 2 8 4 E 1012,9 47 0 0,0
18.06.2019 23:00:00 18,7 12,0 16,5 25,9 26,7 17,6 3 2 8 5 E 1013,1 59 0 0,0
18.06.2019 22:00:00 21,1 12,2 17,7 27,5 27,1 17,6 4 2 11 6 SE 1013,0 1,3 1 0,0
18.06.2019 21:00:00 25,9 11,3 24,0 29,3 27,3 17,6 8 4 19 10 SE 1012,8 72 56 0,0
18.06.2019 20:00:00 28,4 10,1 29,1 31,0 27,4 17,6 12 7 21 11 SE 1012,9 58 60 0,0
18.06.2019 19:00:00 29,1 9,5 31,1 32,1 27,3 17,6 12 6 22 12 SSE 1013,1 25 57 0,0
18.06.2019 18:00:00 29,4 9,6 32,6 32,5 27,2 17,6 12 7 21 12 SSE 1013,5 60 36 0,0
18.06.2019 17:00:00 29,3 9,2 32,1 33,5 26,8 17,6 11 6 29 16 SSE 1014,0 49 26 0,0
18.06.2019 16:00:00 29,3 9,1 33,2 35,1 26,1 17,6 18 10 31 17 SSE 1014,6 75 56 0,0
18.06.2019 15:00:00 29,8 10,2 35,3 34,6 25,2 17,6 13 7 32 18 SSE 1015,1 75 58 0,0
18.06.2019 14:00:00 29,0 9,5 34,5 33,5 24,2 17,6 16 8 33 18 SE 1015,8 59 59 0,0
18.06.2019 13:00:00 28,5 10,2 33,9 31,7 23,3 17,6 15 8 31 17 S 1016,4 54 60 0,0
18.06.2019 12:00:00 27,6 10,8 32,5 29,9 22,5 17,6 18 10 33 18 SSE 1016,8 44 60 0,0
18.06.2019 11:00:00 27,1 10,9 31,5 27,7 21,7 17,6 17 9 29 16 SSE 1017,2 75 60 0,0
18.06.2019 10:00:00 26,2 12,4 30,3 24,9 21,2 17,6 12 7 24 13 SSE 1017,7 75 60 0,0
18.06.2019 09:00:00 23,8 13,4 27,0 21,8 20,9 17,5 11 6 16 9 SE 1018,0 55 60 0,0
18.06.2019 08:00:00 21,2 13,2 22,8 19,8 21,0 17,5 7 4 15 8 SE 1018,4 40 60 0,0
18.06.2019 07:00:00 18,2 13,2 18,8 18,9 21,3 17,5 5 3 9 5 ESE 1018,5 33 60 0,0
18.06.2019 06:00:00 14,7 12,4 12,9 18,3 21,7 17,5 4 2 5 3 SE 1018,6 27 11 0,0
18.06.2019 05:00:00 12,5 12,0 10,1 18,7 22,2 17,5 3 2 6 4 E 1018,9 4,9 0 0,0
18.06.2019 04:00:00 13,6 12,5 10,4 19,3 22,6 17,5 3 2 5 3 E 1018,8 22 0 0,0
18.06.2019 03:00:00 13,3 11,3 10,8 20,0 23,2 17,5 3 1 5 3 E 1019,3 31 0 0,0
18.06.2019 02:00:00 14,1 11,8 12,3 20,9 23,7 17,5 4 2 6 4 E 1019,4 31 0 0,0
18.06.2019 01:00:00 15,1 12,0 12,2 21,8 24,2 17,5 0 0 3 2 N 1019,5 37 0 0,0
18.06.2019 00:00:00 16,3 12,1 13,0 22,9 24,7 17,5 2 1 4 2 E 1019,3 39 0 0,0
17.06.2019 23:00:00 17,3 12,5 14,4 24,1 25,2 17,5 3 2 6 3 E 1019,3 42 0 0,0
17.06.2019 22:00:00 19,4 13,0 16,7 25,7 25,6 17,5 4 2 8 4 ESE 1019,3 55 0 0,0
17.06.2019 21:00:00 23,5 12,1 21,7 27,5 25,9 17,5 7 4 18 10 E 1018,9 56 10 0,0
17.06.2019 20:00:00 25,7 10,5 26,0 29,2 26,0 17,5 12 7 20 11 ESE 1019,1 48 38 0,0
17.06.2019 19:00:00 25,6 10,6 25,8 30,1 25,9 17,5 10 5 18 10 E 1019,3 62 35 0,0
17.06.2019 18:00:00 26,0 10,4 26,9 30,6 25,8 17,6 8 4 16 9 E 1019,7 48 14 0,0
17.06.2019 17:00:00 26,0 10,3 28,7 31,6 25,5 17,6 8 4 19 10 E 1020,2 50 16 0,0
17.06.2019 16:00:00 26,1 9,2 29,7 33,4 24,8 17,6 5 3 19 10 NNE 1020,6 72 48 0,0
17.06.2019 15:00:00 26,3 9,5 33,3 30,9 24,3 17,6 5 3 15 8 E 1021,0 52 24 0,0
17.06.2019 14:00:00 24,8 10,2 26,7 31,7 23,4 17,6 5 3 23 13 NE 1021,3 66 29 0,0
17.06.2019 13:00:00 26,0 10,9 33,2 31,1 22,4 17,6 5 3 18 10 N 1021,7 60 47 0,0
17.06.2019 12:00:00 24,6 10,5 30,9 30,0 21,4 17,6 6 4 16 9 ESE 1021,9 73 60 0,0
17.06.2019 11:00:00 23,5 9,6 29,7 26,9 20,5 17,6 8 4 16 9 NNE 1022,3 45 60 0,0
17.06.2019 10:00:00 23,0 12,1 27,2 23,5 19,9 17,6 2 1 9 5 E 1022,6 47 60 0,0
17.06.2019 09:00:00 20,3 12,8 25,2 20,4 19,6 17,6 3 1 8 4 N 1022,8 45 59 0,0
17.06.2019 08:00:00 19,2 14,5 19,8 18,2 19,6 17,6 3 1 6 3 SSE 1022,7 0,9 56 0,0
17.06.2019 07:00:00 16,6 13,9 16,0 17,1 19,9 17,6 2 1 7 4 SW 1022,7 19 59 0,0
17.06.2019 06:00:00 12,7 11,8 11,7 16,4 20,3 17,6 2 1 4 2 S 1022,6 18 9 0,0
17.06.2019 05:00:00 12,4 12,0 9,7 17,0 20,7 17,6 2 1 6 3 SE 1022,0 14 0 0,0
17.06.2019 04:00:00 13,9 12,8 11,9 18,0 21,1 17,6 3 2 5 3 SW 1022,2 28 0 0,0
17.06.2019 03:00:00 14,9 13,5 13,6 18,9 21,4 17,6 2 1 5 3 ESE 1022,1 32 0 0,0
17.06.2019 02:00:00 15,9 14,5 15,4 19,5 21,7 17,6 1 1 4 2 SW 1022,1 23 0 0,0
17.06.2019 01:00:00 16,7 14,2 16,2 19,8 22,0 17,6 4 2 9 5 WNW 1021,7 36 0 0,0
17.06.2019 00:00:00 17,5 12,9 16,8 20,3 22,4 17,6 6 3 11 6 WNW 1021,7 21 0 0,0
16.06.2019 23:00:00 18,6 11,9 17,8 20,9 22,7 17,6 5 3 13 7 S 1021,4 54 0 0,0
16.06.2019 22:00:00 18,6 13,6 18,3 21,6 23,0 17,6 5 3 10 5 S 1021,4 57 0 0,0
16.06.2019 21:00:00 19,3 14,3 19,0 22,4 23,3 17,6 3 1 5 3 S 1021,1 50 4 0,0
16.06.2019 20:00:00 19,4 14,1 19,3 23,0 23,6 17,6 4 2 9 5 WNW 1021,2 50 0 0,0
16.06.2019 19:00:00 19,8 12,4 19,8 23,9 23,8 17,6 5 3 7 4 WNW 1021,1 51 0 0,0
16.06.2019 18:00:00 20,0 10,4 20,0 25,0 23,9 17,6 2 1 15 8 W 1020,8 63 0 0,2
16.06.2019 17:00:00 21,2 11,4 22,0 26,6 23,8 17,6 6 4 29 16 SW 1021,1 68 0 0,0
16.06.2019 16:00:00 21,5 11,0 23,0 27,1 23,5 17,6 4 2 13 7 NW 1021,1 75 0 0,0
16.06.2019 15:00:00 21,7 10,9 23,8 27,7 23,1 17,6 6 4 14 7 W 1021,0 67 0 0,0
16.06.2019 14:00:00 20,7 10,5 24,8 26,1 22,7 17,6 3 2 12 6 NW 1020,9 73 0 0,0
16.06.2019 13:00:00 20,0 11,4 23,7 24,7 22,5 17,6 4 2 10 5 WNW 1020,9 37 0 0,0
16.06.2019 12:00:00 19,4 10,4 21,0 24,7 22,2 17,5 7 4 16 9 NNW 1020,5 53 0 0,0
16.06.2019 11:00:00 19,0 10,1 21,7 24,9 21,7 17,5 8 4 18 10 NNW 1020,1 63 0 0,0
16.06.2019 10:00:00 19,1 11,1 21,4 24,4 21,2 17,5 8 5 19 11 WNW 1019,9 72 50 0,0
16.06.2019 09:00:00 17,6 11,1 21,7 21,2 21,1 17,5 9 5 17 9 NNW 1019,7 75 59 0,0
16.06.2019 08:00:00 16,1 12,2 17,9 19,1 21,3 17,5 11 6 19 10 N 1018,4 58 55 0,0
16.06.2019 07:00:00 14,9 11,7 15,5 18,0 21,7 17,5 5 3 13 7 NW 1018,6 42 35 0,0
16.06.2019 06:00:00 13,8 11,6 12,7 18,0 22,2 17,4 7 4 17 9 NW 1017,9 47 0 0,0
16.06.2019 05:00:00 14,1 11,8 13,0 18,6 22,7 17,4 10 6 20 11 WNW 1017,3 71 0 0,0
16.06.2019 04:00:00 14,8 12,0 13,6 19,3 23,3 17,4 9 5 19 10 WNW 1017,0 73 0 0,0
16.06.2019 03:00:00 15,4 12,0 13,1 20,2 23,9 17,4 5 3 17 9 WNW 1017,2 75 0 0,0
16.06.2019 02:00:00 16,4 12,4 15,0 21,2 24,6 17,4 9 5 22 12 NW 1016,8 59 0 0,0
16.06.2019 01:00:00 17,8 12,6 16,8 22,2 25,2 17,4 12 6 18 10 WNW 1016,1 74 0 0,0
16.06.2019 00:00:00 18,7 12,9 17,4 23,3 25,9 17,4 9 5 15 8 WNW 1015,6 61 0 0,0
15.06.2019 23:00:00 19,9 13,0 18,9 24,7 26,5 17,3 11 6 32 17 WNW 1015,7 62 0 0,0
15.06.2019 22:00:00 21,5 13,9 20,8 26,3 27,1 17,3 14 7 29 15 W 1013,7 67 0 0,0
15.06.2019 21:00:00 23,2 13,9 22,8 28,3 27,5 17,3 14 7 34 18 W 1012,9 54 49 0,0
15.06.2019 20:00:00 24,7 14,3 25,6 30,5 27,7 17,3 18 10 40 22 W 1012,4 48 60 0,0
15.06.2019 19:00:00 25,5 14,1 27,5 32,2 27,7 17,3 23 12 39 21 WNW 1012,0 59 60 0,0
15.06.2019 18:00:00 26,7 14,7 29,5 33,2 27,4 17,3 20 11 45 25 W 1011,4 48 58 0,0
15.06.2019 17:00:00 27,0 15,2 29,8 33,4 27,0 17,3 25 14 48 26 WNW 1011,0 40 31 0,0
15.06.2019 16:00:00 28,4 16,2 30,5 34,3 26,4 17,3 23 13 46 25 W 1010,1 42 32 0,0
15.06.2019 15:00:00 30,1 17,1 32,5 33,5 25,7 17,3 16 9 31 17 WSW 1008,9 34 4 0,0
15.06.2019 14:00:00 30,7 17,0 33,5 34,6 24,5 17,3 16 9 31 17 W 1008,3 36 35 0,0
15.06.2019 13:00:00 30,8 16,6 34,8 33,2 23,3 17,3 16 9 35 19 SSW 1007,7 27 60 0,0
15.06.2019 12:00:00 29,8 18,7 33,0 29,0 22,5 17,3 14 8 29 16 SSW 1007,6 26 47 0,0
15.06.2019 11:00:00 26,1 19,4 27,5 24,7 22,2 17,3 11 6 27 15 SE 1007,7 27 0 0,0
15.06.2019 10:00:00 24,7 18,3 25,6 23,8 22,1 17,3 19 11 29 16 ESE 1008,2 29 1 0,0
15.06.2019 09:00:00 24,0 17,9 24,7 23,0 22,0 17,3 22 12 36 20 ESE 1008,5 24 3 0,0
15.06.2019 08:00:00 24,0 18,0 24,2 22,2 22,0 17,2 22 12 35 19 ESE 1008,3 25 0 0,0
15.06.2019 07:00:00 23,2 17,5 22,9 21,5 22,1 17,2 20 11 32 18 E 1008,6 24 0 0,0
15.06.2019 06:00:00 23,0 16,9 22,3 21,1 22,4 17,2 18 10 32 18 E 1009,4 28 0 0,0
15.06.2019 05:00:00 22,9 16,3 21,8 21,2 22,7 17,2 19 11 33 18 E 1009,8 30 0 0,0
15.06.2019 04:00:00 22,8 15,6 20,9 21,4 23,0 17,2 17 9 28 15 E 1011,1 28 0 0,0
15.06.2019 03:00:00 22,5 14,6 21,2 21,6 23,4 17,2 13 7 19 10 E 1012,1 47 0 0,0
15.06.2019 02:00:00 22,5 13,9 20,9 22,3 23,9 17,2 12 6 17 9 E 1013,2 40 0 0,0
15.06.2019 01:00:00 22,4 13,5 20,9 23,1 24,3 17,2 8 4 11 6 E 1013,6 52 0 0,0
15.06.2019 00:00:00 23,3 12,5 21,9 23,8 24,7 17,2 6 3 12 6 NW 1014,4 56 0 0,0
14.06.2019 23:00:00 24,4 11,4 22,0 24,5 25,1 17,2 4 2 22 12 ESE 1015,0 63 0 0,0
14.06.2019 22:00:00 26,7 9,7 25,6 25,4 25,5 17,2 16 9 25 13 ESE 1014,5 59 0 0,0
14.06.2019 21:00:00 24,5 13,9 23,2 26,6 25,9 17,2 8 4 11 6 E 1014,7 55 0 0,0
14.06.2019 20:00:00 26,7 10,6 25,8 27,9 26,2 17,2 9 5 14 8 ESE 1014,7 61 0 0,0
14.06.2019 19:00:00 28,0 9,0 27,7 29,1 26,3 17,2 9 5 18 10 SE 1015,2 75 0 0,0
14.06.2019 18:00:00 28,5 7,9 28,9 30,4 26,3 17,2 9 5 20 11 SE 1015,4 71 0 0,0
14.06.2019 17:00:00 28,5 6,4 29,5 31,5 26,1 17,3 12 7 24 13 SE 1016,1 52 0 0,0
14.06.2019 16:00:00 29,3 5,1 30,9 33,7 25,4 17,3 14 8 32 17 SSE 1016,4 64 42 0,0
14.06.2019 15:00:00 29,5 6,7 32,7 34,4 24,2 17,3 18 10 37 20 SE 1016,6 56 60 0,0
14.06.2019 14:00:00 28,9 6,9 32,7 33,2 22,9 17,3 26 14 36 19 SE 1017,1 60 60 0,0
14.06.2019 13:00:00 28,3 7,6 32,1 31,0 21,6 17,3 20 11 34 19 SSE 1017,5 69 60 0,0
14.06.2019 12:00:00 27,1 10,0 30,7 27,6 20,6 17,3 17 9 30 16 SE 1018,1 58 60 0,0
14.06.2019 11:00:00 25,7 10,0 28,3 25,0 19,7 17,3 17 9 27 15 SE 1018,3 57 60 0,0
14.06.2019 10:00:00 24,0 11,3 26,3 22,2 19,1 17,3 12 6 22 12 ESE 1018,6 16 60 0,0
14.06.2019 09:00:00 21,4 12,6 23,3 19,4 18,7 17,3 11 6 16 9 SE 1018,5 68 60 0,0
14.06.2019 08:00:00 18,4 13,3 18,2 17,0 18,7 17,3 9 5 16 8 ESE 1018,4 61 60 0,0
14.06.2019 07:00:00 15,3 12,8 14,6 15,6 18,9 17,3 5 3 8 4 E 1018,0 43 60 0,0
14.06.2019 06:00:00 13,2 11,8 11,4 14,8 19,4 17,3 2 1 7 4 SSE 1018,0 38 12 0,0

tt = temperature
td = dewpoint
tt 5cm = temperature 5cm
tt -5cm = temperature -5cm
tt -20cm = temperature -20cm
tt -100cm = temperature -100cm
ff = wind speed
fx = gusts
dd = wind direction
ppp = reduced air pressure
vv = visibility
sd = sunshine duration
rr = precipitation

Next stations